SAS2704 EDDV-EDDH

Flight info

Callsign SAS2704
Flight time 0h 26m
Altitude 23000
Route CEL9G CEL Q282 DIRBO T902 RARUP RARUP3D
Aircraft B736/M-SDE2E3FGHIRWXY/LB1

Departure

Time 2026-05-01 11:20
Airport Hannover Airport (EDDV)

Arrival

Time 2026-05-01 11:47
Airport Hamburg Helmut Schmidt Airport (EDDH)
Time Latitude Longitude Altitude Speed Heading
2026-05-01 10:52 52.45744 9.69704 181 ft 0 kts 356°
2026-05-01 11:10 52.45721 9.69707 182 ft 3 kts 355°
2026-05-01 11:10 52.45703 9.69710 183 ft 3 kts 342°
2026-05-01 11:10 52.45687 9.69724 183 ft 3 kts 311°
2026-05-01 11:10 52.45677 9.69750 199 ft 3 kts 284°
2026-05-01 11:11 52.45674 9.69778 199 ft 1 kts 273°
2026-05-01 11:11 52.45673 9.69787 198 ft 0 kts 273°
2026-05-01 11:14 52.45674 9.69760 198 ft 5 kts 270°
2026-05-01 11:14 52.45676 9.69679 183 ft 8 kts 272°
2026-05-01 11:14 52.45679 9.69571 183 ft 12 kts 272°
2026-05-01 11:14 52.45744 9.69454 181 ft 16 kts 315°
2026-05-01 11:15 52.45761 9.69264 178 ft 17 kts 273°
2026-05-01 11:15 52.45790 9.69083 179 ft 17 kts 320°
2026-05-01 11:15 52.45898 9.68951 176 ft 25 kts 323°
2026-05-01 11:15 52.46047 9.68765 176 ft 25 kts 322°
2026-05-01 11:16 52.46178 9.68599 179 ft 23 kts 322°
2026-05-01 11:16 52.46302 9.68444 180 ft 22 kts 322°
2026-05-01 11:16 52.46424 9.68291 180 ft 22 kts 322°
2026-05-01 11:16 52.46518 9.68113 176 ft 21 kts 280°
2026-05-01 11:17 52.46528 9.67876 179 ft 21 kts 271°
2026-05-01 11:17 52.46535 9.67645 180 ft 20 kts 272°
2026-05-01 11:17 52.46540 9.67422 180 ft 19 kts 272°
2026-05-01 11:17 52.46546 9.67206 180 ft 19 kts 272°
2026-05-01 11:18 52.46553 9.66994 176 ft 19 kts 273°
2026-05-01 11:18 52.46559 9.66737 175 ft 26 kts 273°
2026-05-01 11:18 52.46568 9.66441 174 ft 25 kts 271°
2026-05-01 11:18 52.46575 9.66170 175 ft 19 kts 274°
2026-05-01 11:19 52.46649 9.66012 177 ft 18 kts 349°
2026-05-01 11:19 52.46701 9.66012 176 ft 0 kts 359°
2026-05-01 11:19 52.46717 9.66014 176 ft 7 kts
2026-05-01 11:19 52.46788 9.66101 175 ft 19 kts 60°
2026-05-01 11:20 52.46792 9.66451 177 ft 63 kts 92°
2026-05-01 11:20 52.46760 9.67595 191 ft 132 kts 92°
2026-05-01 11:20 52.46707 9.69234 678 ft 153 kts 94°
2026-05-01 11:20 52.46635 9.71078 1286 ft 171 kts 93°
2026-05-01 11:21 52.46601 9.73068 2102 ft 179 kts 92°
2026-05-01 11:21 52.46584 9.75103 3081 ft 177 kts 93°
2026-05-01 11:21 52.46512 9.77151 3756 ft 191 kts 96°
2026-05-01 11:21 52.46420 9.79430 4062 ft 216 kts 95°
2026-05-01 11:22 52.46334 9.81977 4582 ft 232 kts 95°
2026-05-01 11:22 52.46253 9.84747 5220 ft 248 kts 94°
2026-05-01 11:22 52.46168 9.87591 6207 ft 246 kts 93°
2026-05-01 11:22 52.46204 9.90363 7360 ft 245 kts 79°
2026-05-01 11:23 52.46926 9.92904 8348 ft 251 kts 55°
2026-05-01 11:23 52.48261 9.94788 9333 ft 261 kts 30°
2026-05-01 11:23 52.50042 9.95593 10099 ft 274 kts
2026-05-01 11:23 52.51953 9.95439 10385 ft 278 kts 359°
2026-05-01 11:24 52.53898 9.95106 10401 ft 283 kts 358°
2026-05-01 11:24 52.55854 9.94735 10396 ft 282 kts 357°
2026-05-01 11:24 52.59734 9.93987 10386 ft 280 kts 358°
2026-05-01 11:25 52.61663 9.93630 10406 ft 279 kts 358°
2026-05-01 11:25 52.65539 9.92927 10407 ft 282 kts 358°
2026-05-01 11:25 52.67496 9.92581 10411 ft 282 kts 358°
2026-05-01 11:26 52.69485 9.92236 10513 ft 299 kts 358°
2026-05-01 11:26 52.74054 9.91452 11177 ft 353 kts 357°
2026-05-01 11:26 52.76522 9.91016 12027 ft 359 kts 357°
2026-05-01 11:27 52.78975 9.90578 13047 ft 360 kts 358°
2026-05-01 11:27 52.81489 9.90134 13980 ft 366 kts 358°
2026-05-01 11:27 52.84046 9.89685 14852 ft 371 kts 358°
2026-05-01 11:27 52.86620 9.89232 15768 ft 373 kts 358°
2026-05-01 11:28 52.89216 9.88774 16204 ft 376 kts 358°
2026-05-01 11:28 52.91846 9.88312 16395 ft 387 kts 358°
2026-05-01 11:28 52.94599 9.87834 16408 ft 407 kts 357°
2026-05-01 11:29 52.99317 9.87002 16402 ft 412 kts 357°
2026-05-01 11:29 53.02166 9.86494 16394 ft 412 kts 357°
2026-05-01 11:29 53.07891 9.85470 16394 ft 414 kts 357°
2026-05-01 11:30 53.10751 9.84961 16389 ft 413 kts 357°
2026-05-01 11:30 53.13602 9.84454 16389 ft 412 kts 357°
2026-05-01 11:30 53.16447 9.83947 16148 ft 407 kts 357°
2026-05-01 11:30 53.19188 9.83453 15766 ft 388 kts 357°
2026-05-01 11:31 53.21846 9.82974 15392 ft 380 kts 357°
2026-05-01 11:31 53.24451 9.82507 15041 ft 373 kts 357°
2026-05-01 11:31 53.27024 9.82047 14673 ft 370 kts 357°
2026-05-01 11:31 53.29579 9.81592 14318 ft 368 kts 357°
2026-05-01 11:32 53.32129 9.81139 13952 ft 368 kts 357°
2026-05-01 11:32 53.34640 9.80690 13552 ft 367 kts 357°
2026-05-01 11:32 53.37172 9.80234 13167 ft 364 kts 357°
2026-05-01 11:32 53.39634 9.79786 12765 ft 345 kts 357°
2026-05-01 11:33 53.41963 9.79360 12374 ft 327 kts 357°
2026-05-01 11:33 53.44180 9.78957 11987 ft 313 kts 357°
2026-05-01 11:33 53.46311 9.78571 11603 ft 302 kts 357°
2026-05-01 11:33 53.48398 9.78197 11241 ft 301 kts 357°
2026-05-01 11:34 53.50478 9.77828 10881 ft 300 kts 357°
2026-05-01 11:34 53.52541 9.77350 10517 ft 300 kts 348°
2026-05-01 11:34 53.54479 9.76038 10155 ft 301 kts 336°
2026-05-01 11:34 53.56338 9.74434 9766 ft 299 kts 334°
2026-05-01 11:35 53.58178 9.72808 9398 ft 298 kts 334°
2026-05-01 11:35 53.60014 9.71176 8998 ft 298 kts 334°
2026-05-01 11:35 53.61789 9.69598 8637 ft 296 kts 334°
2026-05-01 11:35 53.63612 9.67986 8277 ft 296 kts 334°
2026-05-01 11:36 53.65433 9.66381 7914 ft 295 kts 334°
2026-05-01 11:36 53.67242 9.64802 7534 ft 296 kts 334°
2026-05-01 11:36 53.69043 9.63246 7174 ft 287 kts 334°
2026-05-01 11:36 53.70799 9.61735 6789 ft 280 kts 334°
2026-05-01 11:37 53.72514 9.60271 6410 ft 273 kts 334°
2026-05-01 11:37 53.74196 9.58837 6000 ft 268 kts 334°
2026-05-01 11:37 53.75851 9.57458 5614 ft 261 kts 339°
2026-05-01 11:37 53.77590 9.56885 5244 ft 252 kts
2026-05-01 11:38 53.79299 9.57273 4911 ft 245 kts 13°
2026-05-01 11:38 53.80964 9.57845 4531 ft 244 kts 13°
2026-05-01 11:38 53.82614 9.58442 4158 ft 240 kts 14°
2026-05-01 11:38 53.84253 9.59044 3845 ft 242 kts 13°
2026-05-01 11:39 53.85895 9.59672 3424 ft 241 kts 15°
2026-05-01 11:39 53.87399 9.60843 3101 ft 241 kts 39°
2026-05-01 11:39 53.88475 9.62943 3004 ft 232 kts 64°
2026-05-01 11:39 53.88896 9.65551 2986 ft 229 kts 90°
2026-05-01 11:40 53.88618 9.68150 2997 ft 220 kts 116°
2026-05-01 11:40 53.87874 9.70309 2965 ft 205 kts 121°
2026-05-01 11:40 53.87154 9.72243 3043 ft 186 kts 125°
2026-05-01 11:40 53.86463 9.74048 3038 ft 176 kts 121°
2026-05-01 11:41 53.85799 9.75856 2990 ft 177 kts 124°
2026-05-01 11:41 53.85151 9.77534 2986 ft 164 kts 126°
2026-05-01 11:41 53.84563 9.79100 3037 ft 157 kts 124°
2026-05-01 11:41 53.83953 9.80695 3027 ft 161 kts 130°
2026-05-01 11:42 53.83098 9.81708 3018 ft 148 kts 152°
2026-05-01 11:42 53.82179 9.82756 3064 ft 173 kts 144°
2026-05-01 11:42 53.81153 9.83811 2984 ft 169 kts 150°
2026-05-01 11:42 53.80089 9.84790 2945 ft 182 kts 153°
2026-05-01 11:43 53.78957 9.85753 2996 ft 187 kts 152°
2026-05-01 11:43 53.77844 9.86814 2950 ft 178 kts 152°
2026-05-01 11:43 53.76712 9.87845 2668 ft 201 kts 154°
2026-05-01 11:44 53.74284 9.89907 1897 ft 184 kts 152°
2026-05-01 11:44 53.73236 9.90796 1711 ft 175 kts 156°
2026-05-01 11:44 53.72169 9.91552 1366 ft 172 kts 145°
2026-05-01 11:44 53.71167 9.92662 1097 ft 169 kts 151°
2026-05-01 11:45 53.70117 9.93494 936 ft 164 kts 155°
2026-05-01 11:45 53.69162 9.94276 789 ft 145 kts 152°
2026-05-01 11:45 53.68284 9.95079 714 ft 143 kts 153°
2026-05-01 11:45 53.67399 9.95833 602 ft 137 kts 152°
2026-05-01 11:46 53.66578 9.96544 373 ft 126 kts 153°
2026-05-01 11:46 53.65813 9.97204 179 ft 124 kts 153°
2026-05-01 11:46 53.65073 9.97835 63 ft 109 kts 153°
2026-05-01 11:46 53.64537 9.98302 52 ft 57 kts 152°
2026-05-01 11:47 53.64238 9.98562 52 ft 44 kts 153°
2026-05-01 11:47 53.64043 9.98749 51 ft 30 kts 141°
2026-05-01 11:47 53.63914 9.98997 48 ft 16 kts 126°
2026-05-01 11:47 53.63910 9.99004 46 ft 0 kts 126°
2026-05-01 11:48 53.63909 9.99009 46 ft 2 kts 126°
2026-05-01 11:48 53.63885 9.99063 48 ft 10 kts 125°
2026-05-01 11:48 53.63827 9.99197 47 ft 18 kts 126°
2026-05-01 11:48 53.63751 9.99375 47 ft 16 kts 126°
2026-05-01 11:49 53.63690 9.99517 46 ft 15 kts 126°
2026-05-01 11:49 53.63632 9.99652 48 ft 14 kts 125°
2026-05-01 11:49 53.63608 9.99709 46 ft 0 kts 125°
2026-05-01 11:50 53.63596 9.99737 49 ft 8 kts 125°
2026-05-01 11:50 53.63545 9.99856 49 ft 15 kts 126°
2026-05-01 11:50 53.63482 10.00001 48 ft 16 kts 126°
2026-05-01 11:50 53.63425 10.00135 47 ft 11 kts 129°
2026-05-01 11:51 53.63361 10.00162 46 ft 9 kts 176°
2026-05-01 11:51 53.63297 10.00169 44 ft 9 kts 176°
2026-05-01 11:51 53.63229 10.00178 46 ft 11 kts 175°
2026-05-01 11:51 53.63156 10.00187 46 ft 10 kts 176°
2026-05-01 11:52 53.63085 10.00192 46 ft 10 kts 188°
2026-05-01 11:52 53.63024 10.00137 45 ft 9 kts 212°
2026-05-01 11:52 53.63012 10.00124 47 ft 0 kts 212°
2026-05-01 11:53 53.62994 10.00104 45 ft 9 kts 213°
2026-05-01 11:53 53.62941 10.00087 46 ft 8 kts 136°
2026-05-01 11:54 53.62909 10.00166 47 ft 8 kts 122°
2026-05-01 11:54 53.62884 10.00234 47 ft 1 kts 122°